Elwood, MO

11:41 PM CDT on August 24, 2016 (GMT -0500)
Rosecrans Memorial

Weather History for KSTJ - July, 2015

Change the Weather History Date:

Thursday, July 23, 2015

  Actual Average Record
Temperature  
Mean Temperature 77 °F 77 °F  
Max Temperature 88 °F 87 °F 103 °F (1941)
Min Temperature 66 °F 67 °F 53 °F (2003)
Degree Days  
Heating Degree Days 0 0  
Month to date heating degree days 0 0  
Since 1 June heating degree days 1 8  
Since 1 July heating degree days 0 0  
Cooling Degree Days 12 12  
Month to date cooling degree days 266 274  
Year to date cooling degree days 648 654  
Since 1 June cooling degree days 580 541  
Growing Degree Days 26 (Base 50)    
Moisture  
Dew Point 70 °F    
Average Humidity 78    
Maximum Humidity 100    
Minimum Humidity 55    
Precipitation  
Precipitation 0.00 in 0.19 in 1.15 in (1932)
Month to date precipitation 4.77 3.77  
Year to date precipitation 27.36 20.90  
Sea Level Pressure  
Sea Level Pressure 29.93 in    
Wind  
Wind Speed 5 mph (ESE)    
Max Wind Speed 10 mph    
Max Gust Speed 15 mph    
Visibility 10 miles    
Events      
T = Trace of Precipitation, MM = Missing Value Source: NWS Daily Summary

Daily Weather History Graph

Daily Weather History Graph

Search for Another Location

Airport or City:

Trip Planner

Search our weather history database for the weather conditions in past years. The results will help you decide how hot, cold, wet, or windy it might be!

Date:

Astronomy

Jul. 23, 2015 Rise Set
Actual Time 6:10 AM CDT 8:41 PM CDT
Civil Twilight 5:39 AM CDT 9:12 PM CDT
Nautical Twilight 5:00 AM CDT 9:50 PM CDT
Astronomical Twilight 4:17 AM CDT 10:33 PM CDT
Moon 1:22 PM CDT (7/23) 12:10 AM CDT (7/23)
Length of Visible Light 15h 32m
Length of Day
14h 30m
Waxing Crescent, 46% of the Moon is Illuminated
Jul 23
Waxing Crescent
Jul 23
First Quarter
Jul 31
Full
Aug 6
Last Quarter
Aug 14
New

Hourly Weather History & Observations

Time (CDT) Temp. Heat Index Dew Point Humidity Pressure Visibility Wind Dir Wind Speed Gust Speed Precip Events Conditions
12:53 AM 69.1 °F - 66.9 °F 93% 29.91 in 10.0 mi NNW 3.5 mph - N/A   Clear
1:53 AM 69.1 °F - 66.0 °F 90% 29.92 in 10.0 mi Calm Calm - N/A   Clear
2:53 AM 69.1 °F - 66.9 °F 93% 29.92 in 10.0 mi Calm Calm - N/A   Partly Cloudy
3:53 AM 68.0 °F - 66.0 °F 93% 29.92 in 9.0 mi NNE 3.5 mph - N/A   Clear
4:53 AM 66.9 °F - 66.0 °F 97% 29.92 in 9.0 mi Calm Calm - N/A   Clear
5:53 AM 68.0 °F - 66.0 °F 93% 29.92 in 10.0 mi Calm Calm - N/A   Clear
6:32 AM 66.0 °F - 64.9 °F 96% 29.95 in 6.0 mi Calm Calm - N/A   Partly Cloudy
6:53 AM 69.1 °F - 66.9 °F 93% 29.94 in 5.0 mi Calm Calm - N/A   Mostly Cloudy
7:12 AM 70.0 °F - 68.0 °F 93% 29.96 in 7.0 mi East 3.5 mph - N/A   Scattered Clouds
7:53 AM 73.0 °F - 69.1 °F 87% 29.95 in 10.0 mi Calm Calm - N/A   Clear
8:53 AM 75.9 °F - 70.0 °F 82% 29.95 in 10.0 mi East 5.8 mph - N/A   Clear
9:53 AM 78.1 °F - 71.1 °F 79% 29.95 in 10.0 mi SE 6.9 mph - N/A   Clear
10:41 AM 79.0 °F - 72.0 °F 79% 29.97 in 10.0 mi SE 5.8 mph - N/A   Mostly Cloudy
10:53 AM 80.1 °F 83.8 °F 72.0 °F 76% 29.95 in 10.0 mi ESE 9.2 mph - N/A   Mostly Cloudy
11:16 AM 82.0 °F 86.7 °F 72.0 °F 71% 29.98 in 10.0 mi ESE 6.9 mph - N/A   Scattered Clouds
11:53 AM 81.0 °F 84.9 °F 71.1 °F 72% 29.96 in 10.0 mi East 6.9 mph - N/A   Scattered Clouds
12:01 PM 82.0 °F 86.3 °F 71.1 °F 69% 29.98 in 10.0 mi SE 4.6 mph - N/A   Mostly Cloudy
12:53 PM 82.0 °F 86.3 °F 71.1 °F 69% 29.94 in 10.0 mi ESE 6.9 mph - N/A   Scattered Clouds
1:53 PM 84.9 °F 90.1 °F 71.1 °F 63% 29.93 in 10.0 mi ESE 5.8 mph - N/A   Mostly Cloudy
2:53 PM 86.0 °F 90.7 °F 70.0 °F 59% 29.92 in 10.0 mi East 4.6 mph - N/A   Clear
3:53 PM 87.1 °F 91.3 °F 69.1 °F 55% 29.91 in 10.0 mi SSE 5.8 mph - N/A   Partly Cloudy
4:53 PM 87.1 °F 92.0 °F 70.0 °F 57% 29.91 in 10.0 mi SSE 6.9 mph - N/A   Clear
5:53 PM 84.9 °F 90.1 °F 71.1 °F 63% 29.89 in 10.0 mi SSE 8.1 mph - N/A   Clear
6:53 PM 84.9 °F 89.4 °F 70.0 °F 61% 29.89 in 10.0 mi SE 8.1 mph - N/A   Clear
7:53 PM 82.9 °F 87.0 °F 70.0 °F 65% 29.90 in 10.0 mi SSE 5.8 mph - N/A   Clear
8:13 PM 82.0 °F 85.9 °F 70.0 °F 67% 29.93 in 10.0 mi SE 4.6 mph - N/A   Scattered Clouds
8:32 PM 81.0 °F 84.9 °F 71.1 °F 72% 29.93 in 10.0 mi SE 5.8 mph - N/A   Mostly Cloudy
8:49 PM 80.6 °F 84.6 °F 71.6 °F 74% 29.93 in 10.0 mi ESE 5.8 mph - N/A   Scattered Clouds
8:53 PM 81.0 °F 84.4 °F 70.0 °F 69% 29.91 in 10.0 mi Variable 6.9 mph - N/A   Partly Cloudy
9:53 PM 79.0 °F - 71.1 °F 77% 29.91 in 10.0 mi SE 6.9 mph - N/A   Clear
10:53 PM 77.0 °F - 71.1 °F 82% 29.93 in 10.0 mi SE 5.8 mph - N/A   Clear
11:53 PM 78.1 °F - 71.1 °F 79% 29.92 in 10.0 mi SE 9.2 mph - N/A   Clear